owner,sensor,date,latitude,longitude,air_temperature,qcFlag 
COMPS,ioos:station:USF.COMPS:ARP:1,2012-05-01T00:00:00Z,28.4330,-82.6670,28.7,1111122 
COMPS,ioos:station:USF.COMPS:ARP:1,2012-05-01T00:06:00Z,28.4330,-82.6670,28.35,1111122 
COMPS,ioos:station:USF.COMPS:ARP:1,2012-05-01T00:12:00Z,28.4330,-82.6670,28.17,1111122 
COMPS,ioos:station:USF.COMPS:ARP:1,2012-05-01T00:18:00Z,28.4330,-82.6670,28.01,1111122 
COMPS,ioos:station:USF.COMPS:ARP:1,2012-05-01T00:24:00Z,28.4330,-82.6670,27.88,1111122 
COMPS,ioos:station:USF.COMPS:ARP:1,2012-05-01T00:30:00Z,28.4330,-82.6670,27.79,1111122 
COMPS,ioos:station:USF.COMPS:ARP:1,2012-05-01T00:36:00Z,28.4330,-82.6670,27.63,1111122 
COMPS,ioos:station:USF.COMPS:ARP:1,2012-05-01T00:42:00Z,28.4330,-82.6670,27.51,1111122 
COMPS,ioos:station:USF.COMPS:ARP:1,2012-05-01T00:48:00Z,28.4330,-82.6670,27.43,1111122 
COMPS,ioos:station:USF.COMPS:ARP:1,2012-05-01T00:54:00Z,28.4330,-82.6670,27.39,1111122 
COMPS,ioos:station:USF.COMPS:ARP:1,2012-05-01T01:00:00Z,28.4330,-82.6670,27.4,1111122 
COMPS,ioos:station:USF.COMPS:ARP:1,2012-05-01T01:06:00Z,28.4330,-82.6670,26.99,1111122 
COMPS,ioos:station:USF.COMPS:ARP:1,2012-05-01T01:12:00Z,28.4330,-82.6670,26.88,1111122 
COMPS,ioos:station:USF.COMPS:ARP:1,2012-05-01T01:18:00Z,28.4330,-82.6670,26.75,1111122 
COMPS,ioos:station:USF.COMPS:ARP:1,2012-05-01T01:24:00Z,28.4330,-82.6670,26.63,1111122 
COMPS,ioos:station:USF.COMPS:ARP:1,2012-05-01T01:30:00Z,28.4330,-82.6670,26.49,1111122 
COMPS,ioos:station:USF.COMPS:ARP:1,2012-05-01T01:36:00Z,28.4330,-82.6670,26.39,1111122 
COMPS,ioos:station:USF.COMPS:ARP:1,2012-05-01T01:42:00Z,28.4330,-82.6670,26.21,1111122 
COMPS,ioos:station:USF.COMPS:ARP:1,2012-05-01T01:48:00Z,28.4330,-82.6670,26.11,1111122 
COMPS,ioos:station:USF.COMPS:ARP:1,2012-05-01T01:54:00Z,28.4330,-82.6670,26.07,1111122 
COMPS,ioos:station:USF.COMPS:ARP:1,2012-05-01T02:00:00Z,28.4330,-82.6670,26.1,1111122 
COMPS,ioos:station:USF.COMPS:ARP:1,2012-05-01T02:06:00Z,28.4330,-82.6670,25.75,1111122 
COMPS,ioos:station:USF.COMPS:ARP:1,2012-05-01T02:12:00Z,28.4330,-82.6670,25.61,1111122 
COMPS,ioos:station:USF.COMPS:ARP:1,2012-05-01T02:18:00Z,28.4330,-82.6670,25.54,1111122 
COMPS,ioos:station:USF.COMPS:ARP:1,2012-05-01T02:24:00Z,28.4330,-82.6670,25.47,1111122 
COMPS,ioos:station:USF.COMPS:ARP:1,2012-05-01T02:30:00Z,28.4330,-82.6670,25.36,1111122 
COMPS,ioos:station:USF.COMPS:ARP:1,2012-05-01T02:36:00Z,28.4330,-82.6670,25.27,1111122 
COMPS,ioos:station:USF.COMPS:ARP:1,2012-05-01T02:42:00Z,28.4330,-82.6670,25.19,1111122 
COMPS,ioos:station:USF.COMPS:ARP:1,2012-05-01T02:48:00Z,28.4330,-82.6670,25.07,1111122 
COMPS,ioos:station:USF.COMPS:ARP:1,2012-05-01T02:54:00Z,28.4330,-82.6670,25.03,1111122 
COMPS,ioos:station:USF.COMPS:ARP:1,2012-05-01T03:00:00Z,28.4330,-82.6670,25.0,1111122 
COMPS,ioos:station:USF.COMPS:ARP:1,2012-05-01T03:06:00Z,28.4330,-82.6670,24.73,1111122 
COMPS,ioos:station:USF.COMPS:ARP:1,2012-05-01T03:12:00Z,28.4330,-82.6670,24.63,1111122 
COMPS,ioos:station:USF.COMPS:ARP:1,2012-05-01T03:18:00Z,28.4330,-82.6670,24.53,1111122 
COMPS,ioos:station:USF.COMPS:ARP:1,2012-05-01T03:24:00Z,28.4330,-82.6670,24.48,1111122 
COMPS,ioos:station:USF.COMPS:ARP:1,2012-05-01T03:30:00Z,28.4330,-82.6670,24.33,1111122 
COMPS,ioos:station:USF.COMPS:ARP:1,2012-05-01T03:36:00Z,28.4330,-82.6670,24.33,1111122 
COMPS,ioos:station:USF.COMPS:ARP:1,2012-05-01T03:42:00Z,28.4330,-82.6670,24.23,1111122 
COMPS,ioos:station:USF.COMPS:ARP:1,2012-05-01T03:48:00Z,28.4330,-82.6670,24.12,1111122 
COMPS,ioos:station:USF.COMPS:ARP:1,2012-05-01T03:54:00Z,28.4330,-82.6670,24.11,1111122 
COMPS,ioos:station:USF.COMPS:ARP:1,2012-05-01T04:00:00Z,28.4330,-82.6670,24.1,1111122 
COMPS,ioos:station:USF.COMPS:ARP:1,2012-05-01T04:06:00Z,28.4330,-82.6670,23.81,1111122 
COMPS,ioos:station:USF.COMPS:ARP:1,2012-05-01T04:12:00Z,28.4330,-82.6670,23.77,1111122 
COMPS,ioos:station:USF.COMPS:ARP:1,2012-05-01T04:18:00Z,28.4330,-82.6670,23.66,1111122 
COMPS,ioos:station:USF.COMPS:ARP:1,2012-05-01T04:24:00Z,28.4330,-82.6670,23.62,1111122 
COMPS,ioos:station:USF.COMPS:ARP:1,2012-05-01T04:30:00Z,28.4330,-82.6670,23.48,1111122 
COMPS,ioos:station:USF.COMPS:ARP:1,2012-05-01T04:36:00Z,28.4330,-82.6670,23.4,1111122 
COMPS,ioos:station:USF.COMPS:ARP:1,2012-05-01T04:42:00Z,28.4330,-82.6670,23.36,1111122 
COMPS,ioos:station:USF.COMPS:ARP:1,2012-05-01T04:48:00Z,28.4330,-82.6670,23.36,1111122 
COMPS,ioos:station:USF.COMPS:ARP:1,2012-05-01T04:54:00Z,28.4330,-82.6670,23.34,1111122 
COMPS,ioos:station:USF.COMPS:ARP:1,2012-05-01T05:00:00Z,28.4330,-82.6670,23.3,1111122 
COMPS,ioos:station:USF.COMPS:ARP:1,2012-05-01T05:06:00Z,28.4330,-82.6670,23.13,1111122 
COMPS,ioos:station:USF.COMPS:ARP:1,2012-05-01T05:12:00Z,28.4330,-82.6670,23.11,1111122 
COMPS,ioos:station:USF.COMPS:ARP:1,2012-05-01T05:18:00Z,28.4330,-82.6670,23.0,1111122 
COMPS,ioos:station:USF.COMPS:ARP:1,2012-05-01T05:24:00Z,28.4330,-82.6670,22.91,1111122 
COMPS,ioos:station:USF.COMPS:ARP:1,2012-05-01T05:30:00Z,28.4330,-82.6670,22.87,1111122 
COMPS,ioos:station:USF.COMPS:ARP:1,2012-05-01T05:36:00Z,28.4330,-82.6670,22.85,1111122 
COMPS,ioos:station:USF.COMPS:ARP:1,2012-05-01T05:42:00Z,28.4330,-82.6670,22.8,1111122 
COMPS,ioos:station:USF.COMPS:ARP:1,2012-05-01T05:48:00Z,28.4330,-82.6670,22.73,1111122 
COMPS,ioos:station:USF.COMPS:ARP:1,2012-05-01T05:54:00Z,28.4330,-82.6670,22.76,1111122 
COMPS,ioos:station:USF.COMPS:ARP:1,2012-05-01T06:00:00Z,28.4330,-82.6670,22.8,1111122 
COMPS,ioos:station:USF.COMPS:ARP:1,2012-05-01T07:00:00Z,28.4330,-82.6670,22.18,1111122 
COMPS,ioos:station:USF.COMPS:ARP:1,2012-05-01T07:06:00Z,28.4330,-82.6670,22.17,1111122 
COMPS,ioos:station:USF.COMPS:ARP:1,2012-05-01T07:12:00Z,28.4330,-82.6670,22.14,1111122 
COMPS,ioos:station:USF.COMPS:ARP:1,2012-05-01T07:18:00Z,28.4330,-82.6670,22.05,1111122 
COMPS,ioos:station:USF.COMPS:ARP:1,2012-05-01T07:24:00Z,28.4330,-82.6670,22.02,1111122 
COMPS,ioos:station:USF.COMPS:ARP:1,2012-05-01T07:30:00Z,28.4330,-82.6670,21.93,1111122 
COMPS,ioos:station:USF.COMPS:ARP:1,2012-05-01T07:36:00Z,28.4330,-82.6670,21.92,1111122 
COMPS,ioos:station:USF.COMPS:ARP:1,2012-05-01T07:42:00Z,28.4330,-82.6670,21.9,1111122 
COMPS,ioos:station:USF.COMPS:ARP:1,2012-05-01T07:48:00Z,28.4330,-82.6670,21.9,1111122 
COMPS,ioos:station:USF.COMPS:ARP:1,2012-05-01T07:54:00Z,28.4330,-82.6670,22.04,1111122 
COMPS,ioos:station:USF.COMPS:ARP:1,2012-05-01T08:00:00Z,28.4330,-82.6670,22.0,1111122 
COMPS,ioos:station:USF.COMPS:ARP:1,2012-05-01T08:06:00Z,28.4330,-82.6670,21.83,1111122 
COMPS,ioos:station:USF.COMPS:ARP:1,2012-05-01T08:12:00Z,28.4330,-82.6670,21.76,1111122 
COMPS,ioos:station:USF.COMPS:ARP:1,2012-05-01T08:18:00Z,28.4330,-82.6670,21.74,1111122 
COMPS,ioos:station:USF.COMPS:ARP:1,2012-05-01T08:24:00Z,28.4330,-82.6670,21.62,1111122 
COMPS,ioos:station:USF.COMPS:ARP:1,2012-05-01T08:30:00Z,28.4330,-82.6670,21.62,1111122 
COMPS,ioos:station:USF.COMPS:ARP:1,2012-05-01T08:36:00Z,28.4330,-82.6670,21.53,1111122 
COMPS,ioos:station:USF.COMPS:ARP:1,2012-05-01T08:42:00Z,28.4330,-82.6670,21.49,1111122 
COMPS,ioos:station:USF.COMPS:ARP:1,2012-05-01T08:48:00Z,28.4330,-82.6670,21.45,1111122 
COMPS,ioos:station:USF.COMPS:ARP:1,2012-05-01T08:54:00Z,28.4330,-82.6670,21.49,1111122 
COMPS,ioos:station:USF.COMPS:ARP:1,2012-05-01T09:00:00Z,28.4330,-82.6670,21.5,1111122 
COMPS,ioos:station:USF.COMPS:ARP:1,2012-05-01T09:06:00Z,28.4330,-82.6670,21.32,1111122 
COMPS,ioos:station:USF.COMPS:ARP:1,2012-05-01T09:12:00Z,28.4330,-82.6670,21.22,1111122 
COMPS,ioos:station:USF.COMPS:ARP:1,2012-05-01T09:18:00Z,28.4330,-82.6670,21.22,1111122 
COMPS,ioos:station:USF.COMPS:ARP:1,2012-05-01T09:24:00Z,28.4330,-82.6670,21.21,1111122 
COMPS,ioos:station:USF.COMPS:ARP:1,2012-05-01T09:30:00Z,28.4330,-82.6670,21.18,1111122 
COMPS,ioos:station:USF.COMPS:ARP:1,2012-05-01T09:36:00Z,28.4330,-82.6670,21.08,1111122 
COMPS,ioos:station:USF.COMPS:ARP:1,2012-05-01T09:42:00Z,28.4330,-82.6670,21.08,1111122 
COMPS,ioos:station:USF.COMPS:ARP:1,2012-05-01T09:48:00Z,28.4330,-82.6670,21.07,1111122 
COMPS,ioos:station:USF.COMPS:ARP:1,2012-05-01T09:54:00Z,28.4330,-82.6670,21.2,1111122 
COMPS,ioos:station:USF.COMPS:ARP:1,2012-05-01T10:00:00Z,28.4330,-82.6670,21.2,1111122 
COMPS,ioos:station:USF.COMPS:ARP:1,2012-05-01T10:06:00Z,28.4330,-82.6670,21.1,1111122 
COMPS,ioos:station:USF.COMPS:ARP:1,2012-05-01T10:12:00Z,28.4330,-82.6670,21.09,1111122 
COMPS,ioos:station:USF.COMPS:ARP:1,2012-05-01T10:18:00Z,28.4330,-82.6670,21.17,1111122 
COMPS,ioos:station:USF.COMPS:ARP:1,2012-05-01T10:24:00Z,28.4330,-82.6670,21.14,1111122 
COMPS,ioos:station:USF.COMPS:ARP:1,2012-05-01T10:30:00Z,28.4330,-82.6670,21.1,1111122 
COMPS,ioos:station:USF.COMPS:ARP:1,2012-05-01T10:36:00Z,28.4330,-82.6670,21.17,1111122 
COMPS,ioos:station:USF.COMPS:ARP:1,2012-05-01T10:42:00Z,28.4330,-82.6670,21.19,1111122 
COMPS,ioos:station:USF.COMPS:ARP:1,2012-05-01T10:48:00Z,28.4330,-82.6670,21.21,1111122 
COMPS,ioos:station:USF.COMPS:ARP:1,2012-05-01T10:54:00Z,28.4330,-82.6670,21.28,1111122 
COMPS,ioos:station:USF.COMPS:ARP:1,2012-05-01T11:00:00Z,28.4330,-82.6670,21.3,1111122 
COMPS,ioos:station:USF.COMPS:ARP:1,2012-05-01T11:06:00Z,28.4330,-82.6670,21.16,1111122 
COMPS,ioos:station:USF.COMPS:ARP:1,2012-05-01T11:12:00Z,28.4330,-82.6670,21.19,1111122 
COMPS,ioos:station:USF.COMPS:ARP:1,2012-05-01T11:18:00Z,28.4330,-82.6670,21.25,1111122 
COMPS,ioos:station:USF.COMPS:ARP:1,2012-05-01T11:24:00Z,28.4330,-82.6670,21.37,1111122 
COMPS,ioos:station:USF.COMPS:ARP:1,2012-05-01T11:30:00Z,28.4330,-82.6670,21.5,1111122 
COMPS,ioos:station:USF.COMPS:ARP:1,2012-05-01T11:36:00Z,28.4330,-82.6670,21.64,1111122 
COMPS,ioos:station:USF.COMPS:ARP:1,2012-05-01T11:42:00Z,28.4330,-82.6670,21.83,1111122 
COMPS,ioos:station:USF.COMPS:ARP:1,2012-05-01T11:48:00Z,28.4330,-82.6670,22.03,1111122 
COMPS,ioos:station:USF.COMPS:ARP:1,2012-05-01T11:54:00Z,28.4330,-82.6670,22.31,1111122 
COMPS,ioos:station:USF.COMPS:ARP:1,2012-05-01T12:00:00Z,28.4330,-82.6670,22.3,1111122 
COMPS,ioos:station:USF.COMPS:ARP:1,2012-05-01T12:06:00Z,28.4330,-82.6670,22.65,1111122 
COMPS,ioos:station:USF.COMPS:ARP:1,2012-05-01T12:12:00Z,28.4330,-82.6670,22.87,1111122 
COMPS,ioos:station:USF.COMPS:ARP:1,2012-05-01T12:18:00Z,28.4330,-82.6670,23.08,1111122 
COMPS,ioos:station:USF.COMPS:ARP:1,2012-05-01T12:24:00Z,28.4330,-82.6670,23.34,1111122 
COMPS,ioos:station:USF.COMPS:ARP:1,2012-05-01T12:30:00Z,28.4330,-82.6670,23.6,1111122 
COMPS,ioos:station:USF.COMPS:ARP:1,2012-05-01T12:36:00Z,28.4330,-82.6670,23.7,1111122 
COMPS,ioos:station:USF.COMPS:ARP:1,2012-05-01T12:42:00Z,28.4330,-82.6670,23.91,1111122 
COMPS,ioos:station:USF.COMPS:ARP:1,2012-05-01T12:48:00Z,28.4330,-82.6670,24.17,1111122 
COMPS,ioos:station:USF.COMPS:ARP:1,2012-05-01T12:54:00Z,28.4330,-82.6670,24.25,1111122 
COMPS,ioos:station:USF.COMPS:ARP:1,2012-05-01T13:00:00Z,28.4330,-82.6670,24.3,1111122 
COMPS,ioos:station:USF.COMPS:ARP:1,2012-05-01T13:06:00Z,28.4330,-82.6670,24.45,1111122 
COMPS,ioos:station:USF.COMPS:ARP:1,2012-05-01T13:12:00Z,28.4330,-82.6670,24.58,1111122 
COMPS,ioos:station:USF.COMPS:ARP:1,2012-05-01T13:18:00Z,28.4330,-82.6670,24.76,1111122 
COMPS,ioos:station:USF.COMPS:ARP:1,2012-05-01T13:24:00Z,28.4330,-82.6670,24.93,1111122 
COMPS,ioos:station:USF.COMPS:ARP:1,2012-05-01T13:30:00Z,28.4330,-82.6670,25.12,1111122 
COMPS,ioos:station:USF.COMPS:ARP:1,2012-05-01T13:36:00Z,28.4330,-82.6670,25.41,1111122 
COMPS,ioos:station:USF.COMPS:ARP:1,2012-05-01T13:42:00Z,28.4330,-82.6670,25.51,1111122 
COMPS,ioos:station:USF.COMPS:ARP:1,2012-05-01T13:48:00Z,28.4330,-82.6670,25.8,1111122 
COMPS,ioos:station:USF.COMPS:ARP:1,2012-05-01T13:54:00Z,28.4330,-82.6670,25.83,1111122 
COMPS,ioos:station:USF.COMPS:ARP:1,2012-05-01T14:00:00Z,28.4330,-82.6670,25.8,1111122 
COMPS,ioos:station:USF.COMPS:ARP:1,2012-05-01T14:06:00Z,28.4330,-82.6670,25.84,1111122 
COMPS,ioos:station:USF.COMPS:ARP:1,2012-05-01T14:12:00Z,28.4330,-82.6670,26.13,1111122 
COMPS,ioos:station:USF.COMPS:ARP:1,2012-05-01T14:18:00Z,28.4330,-82.6670,26.41,1111122 
COMPS,ioos:station:USF.COMPS:ARP:1,2012-05-01T14:24:00Z,28.4330,-82.6670,26.34,1111122 
COMPS,ioos:station:USF.COMPS:ARP:1,2012-05-01T14:30:00Z,28.4330,-82.6670,26.44,1111122 
COMPS,ioos:station:USF.COMPS:ARP:1,2012-05-01T14:36:00Z,28.4330,-82.6670,26.76,1111122 
COMPS,ioos:station:USF.COMPS:ARP:1,2012-05-01T14:42:00Z,28.4330,-82.6670,26.92,1111122 
COMPS,ioos:station:USF.COMPS:ARP:1,2012-05-01T14:48:00Z,28.4330,-82.6670,26.6,1111122 
COMPS,ioos:station:USF.COMPS:ARP:1,2012-05-01T14:54:00Z,28.4330,-82.6670,26.77,1111122 
COMPS,ioos:station:USF.COMPS:ARP:1,2012-05-01T15:00:00Z,28.4330,-82.6670,26.8,1111122 
COMPS,ioos:station:USF.COMPS:ARP:1,2012-05-01T15:06:00Z,28.4330,-82.6670,26.81,1111122 
COMPS,ioos:station:USF.COMPS:ARP:1,2012-05-01T15:12:00Z,28.4330,-82.6670,26.81,1111122 
COMPS,ioos:station:USF.COMPS:ARP:1,2012-05-01T15:18:00Z,28.4330,-82.6670,26.95,1111122 
COMPS,ioos:station:USF.COMPS:ARP:1,2012-05-01T15:24:00Z,28.4330,-82.6670,27.34,1111122 
COMPS,ioos:station:USF.COMPS:ARP:1,2012-05-01T15:30:00Z,28.4330,-82.6670,27.46,1111122 
COMPS,ioos:station:USF.COMPS:ARP:1,2012-05-01T15:36:00Z,28.4330,-82.6670,27.44,1111122 
COMPS,ioos:station:USF.COMPS:ARP:1,2012-05-01T15:42:00Z,28.4330,-82.6670,27.57,1111122 
COMPS,ioos:station:USF.COMPS:ARP:1,2012-05-01T15:48:00Z,28.4330,-82.6670,27.53,1111122 
COMPS,ioos:station:USF.COMPS:ARP:1,2012-05-01T15:54:00Z,28.4330,-82.6670,27.83,1111122 
COMPS,ioos:station:USF.COMPS:ARP:1,2012-05-01T16:00:00Z,28.4330,-82.6670,27.8,1111122 
COMPS,ioos:station:USF.COMPS:ARP:1,2012-05-01T16:06:00Z,28.4330,-82.6670,27.9,1111122 
COMPS,ioos:station:USF.COMPS:ARP:1,2012-05-01T16:12:00Z,28.4330,-82.6670,28.33,1111122 
COMPS,ioos:station:USF.COMPS:ARP:1,2012-05-01T16:18:00Z,28.4330,-82.6670,28.23,1111122 
COMPS,ioos:station:USF.COMPS:ARP:1,2012-05-01T16:24:00Z,28.4330,-82.6670,28.29,1111122 
COMPS,ioos:station:USF.COMPS:ARP:1,2012-05-01T16:30:00Z,28.4330,-82.6670,28.5,1111122 
COMPS,ioos:station:USF.COMPS:ARP:1,2012-05-01T16:36:00Z,28.4330,-82.6670,28.39,1111122 
COMPS,ioos:station:USF.COMPS:ARP:1,2012-05-01T16:42:00Z,28.4330,-82.6670,28.68,1111122 
COMPS,ioos:station:USF.COMPS:ARP:1,2012-05-01T16:48:00Z,28.4330,-82.6670,28.76,1111122 
COMPS,ioos:station:USF.COMPS:ARP:1,2012-05-01T16:54:00Z,28.4330,-82.6670,28.94,1111122 
COMPS,ioos:station:USF.COMPS:ARP:1,2012-05-01T17:00:00Z,28.4330,-82.6670,28.9,1111122 
COMPS,ioos:station:USF.COMPS:ARP:1,2012-05-01T17:06:00Z,28.4330,-82.6670,29.37,1111122 
COMPS,ioos:station:USF.COMPS:ARP:1,2012-05-01T17:12:00Z,28.4330,-82.6670,29.53,1111122 
COMPS,ioos:station:USF.COMPS:ARP:1,2012-05-01T17:18:00Z,28.4330,-82.6670,29.12,1111122 
COMPS,ioos:station:USF.COMPS:ARP:1,2012-05-01T17:24:00Z,28.4330,-82.6670,29.5,1111122 
COMPS,ioos:station:USF.COMPS:ARP:1,2012-05-01T17:30:00Z,28.4330,-82.6670,29.55,1111122 
COMPS,ioos:station:USF.COMPS:ARP:1,2012-05-01T17:36:00Z,28.4330,-82.6670,29.16,1111122 
COMPS,ioos:station:USF.COMPS:ARP:1,2012-05-01T17:42:00Z,28.4330,-82.6670,29.42,1111122 
COMPS,ioos:station:USF.COMPS:ARP:1,2012-05-01T17:48:00Z,28.4330,-82.6670,29.84,1111122 
COMPS,ioos:station:USF.COMPS:ARP:1,2012-05-01T17:54:00Z,28.4330,-82.6670,30.07,1111122 
COMPS,ioos:station:USF.COMPS:ARP:1,2012-05-01T18:00:00Z,28.4330,-82.6670,30.1,1111122 
COMPS,ioos:station:USF.COMPS:ARP:1,2012-05-01T18:06:00Z,28.4330,-82.6670,30.2,1111122 
COMPS,ioos:station:USF.COMPS:ARP:1,2012-05-01T18:12:00Z,28.4330,-82.6670,30.58,1111122 
COMPS,ioos:station:USF.COMPS:ARP:1,2012-05-01T18:18:00Z,28.4330,-82.6670,30.76,1111122 
COMPS,ioos:station:USF.COMPS:ARP:1,2012-05-01T18:24:00Z,28.4330,-82.6670,31.18,1111122 
COMPS,ioos:station:USF.COMPS:ARP:1,2012-05-01T18:30:00Z,28.4330,-82.6670,30.49,1111122 
COMPS,ioos:station:USF.COMPS:ARP:1,2012-05-01T18:36:00Z,28.4330,-82.6670,30.87,1111122 
COMPS,ioos:station:USF.COMPS:ARP:1,2012-05-01T18:42:00Z,28.4330,-82.6670,30.9,1111122 
COMPS,ioos:station:USF.COMPS:ARP:1,2012-05-01T18:48:00Z,28.4330,-82.6670,31.31,1111122 
COMPS,ioos:station:USF.COMPS:ARP:1,2012-05-01T18:54:00Z,28.4330,-82.6670,31.29,1111122 
COMPS,ioos:station:USF.COMPS:ARP:1,2012-05-01T19:00:00Z,28.4330,-82.6670,31.3,1111122 
COMPS,ioos:station:USF.COMPS:ARP:1,2012-05-01T19:06:00Z,28.4330,-82.6670,31.09,1111122 
COMPS,ioos:station:USF.COMPS:ARP:1,2012-05-01T19:12:00Z,28.4330,-82.6670,30.99,1111122 
COMPS,ioos:station:USF.COMPS:ARP:1,2012-05-01T19:18:00Z,28.4330,-82.6670,31.17,1111122 
COMPS,ioos:station:USF.COMPS:ARP:1,2012-05-01T19:24:00Z,28.4330,-82.6670,30.77,1111122 
COMPS,ioos:station:USF.COMPS:ARP:1,2012-05-01T19:30:00Z,28.4330,-82.6670,30.41,1111122 
COMPS,ioos:station:USF.COMPS:ARP:1,2012-05-01T19:36:00Z,28.4330,-82.6670,31.01,1111122 
COMPS,ioos:station:USF.COMPS:ARP:1,2012-05-01T19:42:00Z,28.4330,-82.6670,30.97,1111122 
COMPS,ioos:station:USF.COMPS:ARP:1,2012-05-01T19:48:00Z,28.4330,-82.6670,30.78,1111122 
COMPS,ioos:station:USF.COMPS:ARP:1,2012-05-01T19:54:00Z,28.4330,-82.6670,30.75,1111122 
COMPS,ioos:station:USF.COMPS:ARP:1,2012-05-01T20:00:00Z,28.4330,-82.6670,30.8,1111122 
COMPS,ioos:station:USF.COMPS:ARP:1,2012-05-01T20:06:00Z,28.4330,-82.6670,30.89,1111122 
COMPS,ioos:station:USF.COMPS:ARP:1,2012-05-01T20:12:00Z,28.4330,-82.6670,30.81,1111122 
COMPS,ioos:station:USF.COMPS:ARP:1,2012-05-01T20:18:00Z,28.4330,-82.6670,31.08,1111122 
COMPS,ioos:station:USF.COMPS:ARP:1,2012-05-01T20:24:00Z,28.4330,-82.6670,30.98,1111122 
COMPS,ioos:station:USF.COMPS:ARP:1,2012-05-01T20:30:00Z,28.4330,-82.6670,30.58,1111122 
COMPS,ioos:station:USF.COMPS:ARP:1,2012-05-01T20:36:00Z,28.4330,-82.6670,30.99,1111122 
COMPS,ioos:station:USF.COMPS:ARP:1,2012-05-01T20:42:00Z,28.4330,-82.6670,31.24,1111122 
COMPS,ioos:station:USF.COMPS:ARP:1,2012-05-01T20:48:00Z,28.4330,-82.6670,31.11,1111122 
COMPS,ioos:station:USF.COMPS:ARP:1,2012-05-01T20:54:00Z,28.4330,-82.6670,30.96,1111122 
COMPS,ioos:station:USF.COMPS:ARP:1,2012-05-01T21:00:00Z,28.4330,-82.6670,31.0,1111122 
COMPS,ioos:station:USF.COMPS:ARP:1,2012-05-01T21:06:00Z,28.4330,-82.6670,31.1,1111122 
COMPS,ioos:station:USF.COMPS:ARP:1,2012-05-01T21:12:00Z,28.4330,-82.6670,31.04,1111122 
COMPS,ioos:station:USF.COMPS:ARP:1,2012-05-01T21:18:00Z,28.4330,-82.6670,31.09,1111122 
COMPS,ioos:station:USF.COMPS:ARP:1,2012-05-01T21:24:00Z,28.4330,-82.6670,31.17,1111122 
COMPS,ioos:station:USF.COMPS:ARP:1,2012-05-01T21:30:00Z,28.4330,-82.6670,30.46,1111122 
COMPS,ioos:station:USF.COMPS:ARP:1,2012-05-01T21:36:00Z,28.4330,-82.6670,30.63,1111122 
COMPS,ioos:station:USF.COMPS:ARP:1,2012-05-01T21:42:00Z,28.4330,-82.6670,31.1,1111122 
COMPS,ioos:station:USF.COMPS:ARP:1,2012-05-01T21:48:00Z,28.4330,-82.6670,31.38,1111122 
COMPS,ioos:station:USF.COMPS:ARP:1,2012-05-01T21:54:00Z,28.4330,-82.6670,31.39,1111122 
COMPS,ioos:station:USF.COMPS:ARP:1,2012-05-01T22:00:00Z,28.4330,-82.6670,31.4,1111122 
COMPS,ioos:station:USF.COMPS:ARP:1,2012-05-01T22:06:00Z,28.4330,-82.6670,30.49,1111122 
COMPS,ioos:station:USF.COMPS:ARP:1,2012-05-01T22:12:00Z,28.4330,-82.6670,30.88,1111122 
COMPS,ioos:station:USF.COMPS:ARP:1,2012-05-01T22:18:00Z,28.4330,-82.6670,30.78,1111122 
COMPS,ioos:station:USF.COMPS:ARP:1,2012-05-01T22:24:00Z,28.4330,-82.6670,30.66,1111122 
COMPS,ioos:station:USF.COMPS:ARP:1,2012-05-01T22:30:00Z,28.4330,-82.6670,30.47,1111122 
COMPS,ioos:station:USF.COMPS:ARP:1,2012-05-01T22:36:00Z,28.4330,-82.6670,30.47,1111122 
COMPS,ioos:station:USF.COMPS:ARP:1,2012-05-01T22:42:00Z,28.4330,-82.6670,30.46,1111122 
COMPS,ioos:station:USF.COMPS:ARP:1,2012-05-01T22:48:00Z,28.4330,-82.6670,30.41,1111122 
COMPS,ioos:station:USF.COMPS:ARP:1,2012-05-01T22:54:00Z,28.4330,-82.6670,30.46,1111122 
COMPS,ioos:station:USF.COMPS:ARP:1,2012-05-01T23:00:00Z,28.4330,-82.6670,30.14,1111122 
COMPS,ioos:station:USF.COMPS:ARP:1,2012-05-01T23:06:00Z,28.4330,-82.6670,30.11,1111122 
COMPS,ioos:station:USF.COMPS:ARP:1,2012-05-01T23:12:00Z,28.4330,-82.6670,30.03,1111122 
COMPS,ioos:station:USF.COMPS:ARP:1,2012-05-01T23:18:00Z,28.4330,-82.6670,29.84,1111122 
COMPS,ioos:station:USF.COMPS:ARP:1,2012-05-01T23:24:00Z,28.4330,-82.6670,29.67,1111122 
COMPS,ioos:station:USF.COMPS:ARP:1,2012-05-01T23:30:00Z,28.4330,-82.6670,29.5,1111122 
COMPS,ioos:station:USF.COMPS:ARP:1,2012-05-01T23:36:00Z,28.4330,-82.6670,29.4,1111122 
COMPS,ioos:station:USF.COMPS:ARP:1,2012-05-01T23:42:00Z,28.4330,-82.6670,29.26,1111122 
COMPS,ioos:station:USF.COMPS:ARP:1,2012-05-01T23:48:00Z,28.4330,-82.6670,29.09,1111122 
COMPS,ioos:station:USF.COMPS:ARP:1,2012-05-01T23:54:00Z,28.4330,-82.6670,29.02,1111122 
COMPS,ioos:station:USF.COMPS:ARP:1,2012-05-02T00:00:00Z,28.4330,-82.6670,29.0,1111122 
COMPS,ioos:station:USF.COMPS:ARP:1,2012-05-02T00:06:00Z,28.4330,-82.6670,28.55,1111122 
COMPS,ioos:station:USF.COMPS:ARP:1,2012-05-02T00:12:00Z,28.4330,-82.6670,28.43,1111122 
COMPS,ioos:station:USF.COMPS:ARP:1,2012-05-02T00:18:00Z,28.4330,-82.6670,28.25,1111122 
COMPS,ioos:station:USF.COMPS:ARP:1,2012-05-02T00:24:00Z,28.4330,-82.6670,28.16,1111122 
COMPS,ioos:station:USF.COMPS:ARP:1,2012-05-02T00:30:00Z,28.4330,-82.6670,28.05,1111122 
COMPS,ioos:station:USF.COMPS:ARP:1,2012-05-02T00:36:00Z,28.4330,-82.6670,27.97,1111122 
COMPS,ioos:station:USF.COMPS:ARP:1,2012-05-02T00:42:00Z,28.4330,-82.6670,27.81,1111122 
COMPS,ioos:station:USF.COMPS:ARP:1,2012-05-02T00:48:00Z,28.4330,-82.6670,27.68,1111122 
COMPS,ioos:station:USF.COMPS:ARP:1,2012-05-02T00:54:00Z,28.4330,-82.6670,27.64,1111122 
COMPS,ioos:station:USF.COMPS:ARP:1,2012-05-02T01:00:00Z,28.4330,-82.6670,27.6,1111122 
COMPS,ioos:station:USF.COMPS:ARP:1,2012-05-02T01:06:00Z,28.4330,-82.6670,27.27,1111122 
COMPS,ioos:station:USF.COMPS:ARP:1,2012-05-02T01:12:00Z,28.4330,-82.6670,27.09,1111122 
COMPS,ioos:station:USF.COMPS:ARP:1,2012-05-02T01:18:00Z,28.4330,-82.6670,26.96,1111122 
COMPS,ioos:station:USF.COMPS:ARP:1,2012-05-02T01:24:00Z,28.4330,-82.6670,26.81,1111122 
COMPS,ioos:station:USF.COMPS:ARP:1,2012-05-02T01:30:00Z,28.4330,-82.6670,26.72,1111122 
COMPS,ioos:station:USF.COMPS:ARP:1,2012-05-02T01:36:00Z,28.4330,-82.6670,26.55,1111122 
COMPS,ioos:station:USF.COMPS:ARP:1,2012-05-02T01:42:00Z,28.4330,-82.6670,26.42,1111122 
COMPS,ioos:station:USF.COMPS:ARP:1,2012-05-02T01:48:00Z,28.4330,-82.6670,26.25,1111122 
COMPS,ioos:station:USF.COMPS:ARP:1,2012-05-02T01:54:00Z,28.4330,-82.6670,26.18,1111122 
COMPS,ioos:station:USF.COMPS:ARP:1,2012-05-02T02:00:00Z,28.4330,-82.6670,26.2,1111122 
COMPS,ioos:station:USF.COMPS:ARP:1,2012-05-02T02:06:00Z,28.4330,-82.6670,25.86,1111122 
COMPS,ioos:station:USF.COMPS:ARP:1,2012-05-02T02:12:00Z,28.4330,-82.6670,25.79,1111122 
COMPS,ioos:station:USF.COMPS:ARP:1,2012-05-02T02:18:00Z,28.4330,-82.6670,25.66,1111122 
COMPS,ioos:station:USF.COMPS:ARP:1,2012-05-02T02:24:00Z,28.4330,-82.6670,25.54,1111122 
COMPS,ioos:station:USF.COMPS:ARP:1,2012-05-02T02:30:00Z,28.4330,-82.6670,25.42,1111122 
COMPS,ioos:station:USF.COMPS:ARP:1,2012-05-02T02:36:00Z,28.4330,-82.6670,25.34,1111122 
COMPS,ioos:station:USF.COMPS:ARP:1,2012-05-02T02:42:00Z,28.4330,-82.6670,25.27,1111122 
COMPS,ioos:station:USF.COMPS:ARP:1,2012-05-02T02:48:00Z,28.4330,-82.6670,25.19,1111122 
COMPS,ioos:station:USF.COMPS:ARP:1,2012-05-02T02:54:00Z,28.4330,-82.6670,25.17,1111122 
COMPS,ioos:station:USF.COMPS:ARP:1,2012-05-02T03:00:00Z,28.4330,-82.6670,25.2,1111122 
COMPS,ioos:station:USF.COMPS:ARP:1,2012-05-02T03:06:00Z,28.4330,-82.6670,24.87,1111122 
COMPS,ioos:station:USF.COMPS:ARP:1,2012-05-02T03:12:00Z,28.4330,-82.6670,24.75,1111122 
COMPS,ioos:station:USF.COMPS:ARP:1,2012-05-02T03:18:00Z,28.4330,-82.6670,24.66,1111122 
COMPS,ioos:station:USF.COMPS:ARP:1,2012-05-02T03:24:00Z,28.4330,-82.6670,24.59,1111122 
COMPS,ioos:station:USF.COMPS:ARP:1,2012-05-02T03:30:00Z,28.4330,-82.6670,24.46,1111122 
COMPS,ioos:station:USF.COMPS:ARP:1,2012-05-02T03:36:00Z,28.4330,-82.6670,24.35,1111122 
COMPS,ioos:station:USF.COMPS:ARP:1,2012-05-02T03:42:00Z,28.4330,-82.6670,24.26,1111122 
COMPS,ioos:station:USF.COMPS:ARP:1,2012-05-02T03:48:00Z,28.4330,-82.6670,24.17,1111122 
COMPS,ioos:station:USF.COMPS:ARP:1,2012-05-02T03:54:00Z,28.4330,-82.6670,24.22,1111122 
COMPS,ioos:station:USF.COMPS:ARP:1,2012-05-02T04:00:00Z,28.4330,-82.6670,24.2,1111122 